Погода в Панино

Россия / Воронежская область     51°38′46″N   40°08′06″E
темп.,
°C
ветер,
м/с
пор.,
м/с
влажн.,
%
обл.,
%
осадки,
мм/ч
давл.,
гПа
погр.,
м
27 октября, ср
ср2700:00+2юз51350100 0.0 1029264
03:00+1юз5125092 0.0 1028246
06:00+1юз5124961 0.0 1027243
09:00+3юз6133938 0.0 1026380
12:00+8юз711275 0.0 1025737
15:00+10юз711300 0.0 10221053
18:00+6юз613425 0.0 1022362
21:00+4юз513410 0.0 1021298
28 октября, чт
чт2800:00+5зюз51054100 0.0 1021266
03:00+4зюз4877100 0.0 1021172
06:00+3зюз3693100 0.0 102098
09:00+5юз4984100 0.0 1020292
12:00+9юз7106490 0.0 1018655
15:00+9зюз61269100 0.1 1016822
18:00+8зюз61190100 0.8 1016569
21:00+7з51093100 1.7 1016432
29 октября, пт
пт2900:00+8зсз4994100 0.2 1017388
03:00+8ссз61189100 0.4 1019587
06:00+7ссв71184100 0.0 1023737
09:00+7св6966100 0.1 10271140
12:00+8св46565 0.0 10291073
15:00+9ссв45515 0.0 10301038
18:00+5ссв35692 0.0 103280
21:00+3всв22765 0.0 103326
30 октября, сб
сб3000:00+2юв12740 0.0 103410
03:00+2ююз22764 0.0 103510
06:00+1юз11805 0.0 103510
09:00+4юз226833 0.0 1036110
12:00+9ююз234917 0.0 1035511
15:00+10юз234215 0.0 1034629
18:00+6ююз33565 0.0 103520
21:00+4ююз33590 0.0 103531
31 октября, вс
вс3100:00+3ююз34630 0.0 103551
03:00+2юз34670 0.0 103543
06:00+2ююз34710 0.0 103548
09:00+4ююз35601 0.0 1035147
12:00+10ююз35390 0.0 1034489
15:00+11ююз34330 0.0 1032602
18:00+6ю33450 0.0 103228
21:00+5ю34470 0.0 103252